STARLINK-34581, 64745

Orbit data source: Space-Track

STARLINK-34581, 64745 is a payload satellite owned by SpaceX/Seattle (US) in LEO that was launched on Wed, 02 Jul 2025 UTC via an FALCON 9 launch vehicle from the Air Force Eastern Test Range (AFETR). Payload-class satellites include a variety of spacecraft equipped with specific instruments for various scientific and technological missions. These include communications satellites like Starlink; space stations such as the ISS; scientific satellites like the Hubble; Earth observation satellites from companies like Planet Labs, Umbra, and HawkEye 360; GPS; miniature CubeSats for education and research; and military/defense satellites.

Loading next visibility...
Identifier
64745, 2025-144X
Orbit
LEO
Country
Flag of USUS
Related business
Manufacturer
SpaceX/Seattle
Mission
Operational Commercial Communications
Bus & Motor
STARLINK V2MO, Unknown motor
Mass
575 kg wet, ~530 kg dry
Launch date (UTC)
2025-07-02 (1 year ago)
Launch vehicle
FALCON 9
Launch site
Air Force Eastern Test Range (AFETR)
Object type
Payload
Rocket body
Debris
Shape & HBR
Box + 2 Pan, 17.7 m
Radar Cross Section
36.964 m², Large (>1 m²)

Expand to show TLE details & history
Last TLE update: 11 hours ago

TLE from 11 hours ago
0 STARLINK-34581
1 64745U 25144X   26171.40229786  .00015936  00000-0  54865-3 0  9992
2 64745  53.1584  64.2255 0001721  59.2928 300.8242 15.30221821 55435
Epoch: 2026-06-20T09:39Z
TLE epoch observation values (Epoch: 2026-06-20T09:39:18.535Z)
Latitude
-0.00002°
Longitude
10.78082°
Altitude
475.445 km
Speed
7.63 km/s
True Right ascension
04h 16m 54s
True Declination
0° 00' 00"
Sunlit
Object was in daylight at epoch
Visualization orbit readout
Latitude
Unknown
Longitude
Unknown
Altitude
Unknown
Speed
Unknown
Apparent Right ascension
Unknown
Apparent Declination
Unknown
Sunlit
N/A
Visualization observer readout
Local Sidereal Time
07:20:25
Azimuth
Unknown
Elevation
Unknown
Doppler factor
Unknown
Orbital elements
Apogee altitude
476.586 km
Perigee altitude
474.227 km
Semi-major axis
6,853.544 km
Eccentricity
0.00017
Inclination
53.1584°
RAAN
64.2255°
Arg. of periapsis
59.2928°
True anomaly
300.80726°
Mean anomaly
300.8242°
Eccentric anomaly
300.81573°
Mean motion
3.82534 °/min
Orbital period
94.11 mins
BSTAR
0.00054865
Loading maneuver chart data...
Computing Atmospheric mass density...
Loading historical data...
Loading historical data...
Loading historical data...
Loading historical data...
Loading historical data...
Loading historical data...
Loading historical data...

Documentation

Showing up to 5 results
|